Wind_Speed
33 34 25 21 22 25 26 26 25 27 28 29 27 29 31 33 34 34 37 39 40 39 40 40 39 37 35 33 31 32 33 32 30 32 34 34 31 30 31 33 35 36 35
40 24 18 20 20 25 27 26 27 27 28 28 27 29 32 34 35 34 36 38 39 40 39 39 38 37 34 34 33 33 33 35 31 32 31 33 32 32 34 35 35 36 38
37 24 18 19 23 25 25 28 28 31 29 29 30 29 32 35 35 35 37 38 41 41 40 40 38 36 35 35 36 36 36 35 33 32 33 35 36 36 36 37 39 40 41
30 26 18 19 24 24 25 28 28 32 28 29 29 29 32 36 36 36 38 39 41 42 42 41 38 35 36 36 38 37 34 35 37 36 38 39 40 40 41 42 44 45 46
36 32 27 18 23 25 26 29 31 37 35 26 29 30 32 36 36 38 39 41 43 43 42 41 37 36 38 38 38 38 39 39 40 41 42 43 45 46 46 47 48 48 49
29 33 36 25 28 27 25 27 30 35 46 31 27 30 32 35 36 38 40 42 44 44 43 41 37 36 38 39 40 41 43 45 45 45 46 48 50 51 52 51 49 46 43
35 36 37 33 29 28 26 28 33 39 32 21 27 29 31 34 37 39 41 43 44 45 45 41 37 37 38 40 42 43 45 47 50 50 52 52 54 54 50 45 41 37 33
27 33 30 33 28 23 17 23 28 37 39 20 30 30 32 34 37 40 42 44 44 47 45 41 38 38 41 43 43 45 47 48 49 52 55 55 52 47 42 39 34 30 26
30 33 33 32 22 16 28 26 23 31 21 23 30 32 34 34 38 42 43 44 45 47 43 41 39 41 43 45 47 49 51 52 53 54 52 47 41 36 32 27 20 17 19
26 30 33 33 19 13 17 13 23 25 32 27 31 33 34 35 39 43 44 44 46 47 42 40 41 43 45 47 50 51 52 52 47 42 39 32 25 21 16 11 13 15 17
33 28 32 32 18 20 22 18 22 28 34 30 31 33 34 36 39 43 44 44 46 44 42 41 43 45 46 48 51 51 48 39 29 30 28 21 15 13 12 12 14 17 17
34 31 28 29 25 26 27 23 37 30 31 26 30 32 33 35 40 42 45 45 45 43 42 42 43 46 48 51 53 46 34 26 31 30 25 21 17 16 15 16 18 18 13
35 31 31 25 33 25 32 27 28 21 25 23 29 33 33 36 40 43 45 45 42 40 41 42 44 48 50 53 44 29 29 31 29 25 22 20 19 17 17 18 17 14 10
36 33 30 28 22 33 22 28 36 27 26 25 30 33 34 37 40 44 44 42 39 41 43 45 46 49 52 44 27 31 30 28 26 23 22 20 18 18 17 15 14 10 10
35 33 29 30 25 25 23 26 31 22 20 23 30 33 35 37 42 44 43 41 41 43 44 46 49 49 45 27 30 28 27 25 23 20 19 18 18 18 17 14 12 11 11
37 37 30 22 20 19 22 28 30 27 21 25 30 32 35 39 43 44 43 42 41 42 45 47 48 44 28 28 29 28 27 25 23 21 20 19 18 17 17 16 13 13 14
34 31 22 19 20 21 23 23 24 22 23 26 29 31 35 39 42 43 41 41 40 42 43 47 44 29 26 28 30 29 26 24 22 21 20 19 18 17 16 16 16 16 17
35 32 25 25 17 19 14 20 22 20 20 28 27 31 36 40 41 39 39 39 39 40 43 45 39 22 25 29 29 27 25 24 24 23 21 20 19 18 18 17 16 16 17
37 37 35 33 16 11 16 22 26 14 23 24 28 32 37 39 37 38 37 37 37 41 45 43 29 22 26 27 27 26 26 26 24 22 21 20 19 19 20 19 18 18 17
38 35 27 27 18 20 19 19 12 17 19 26 29 34 37 37 36 35 35 36 39 42 46 42 25 24 27 28 26 26 25 24 23 22 21 20 19 18 19 19 19 19 20
37 35 29 27 20 18 16 11 13 16 20 24 30 33 33 35 34 34 35 36 40 43 42 35 21 24 27 28 27 26 25 24 22 22 21 21 20 20 20 19 19 20 21
33 35 26 32 26 17 11 8 14 17 20 24 29 30 31 32 32 33 34 37 40 43 37 24 21 24 26 27 26 25 25 23 23 24 24 23 22 21 20 20 20 19 18
28 26 29 36 27 13 11 11 14 16 20 25 25 27 30 32 32 33 34 37 40 38 32 18 22 26 27 25 23 24 24 24 25 25 24 22 22 21 19 17 17 17 18
18 26 30 33 22 16 12 12 13 16 19 21 24 27 30 31 32 32 34 36 38 35 21 17 22 26 26 25 24 25 26 25 24 22 21 21 18 16 18 19 18 17 14
26 25 22 16 18 17 12 10 13 15 16 20 23 26 29 31 31 31 33 36 34 27 15 19 23 24 23 23 24 25 24 23 23 22 19 17 18 20 19 17 14 12 10
25 20 23 23 19 10 9 10 10 12 17 20 23 25 27 28 28 31 32 33 30 16 16 21 24 23 23 24 25 24 24 23 20 18 19 20 20 18 15 13 14 15 15
Wind_Direction
262 271 261 272 291 295 300 306 315 313 307 308 312 317 325 328 327 330 328 330 330 330 329 327 325 322 321 316 312 309 307 305 300 298 297 296 296 293 291 290 290 288 287
274 266 263 278 289 296 303 315 310 312 308 305 315 316 325 325 326 325 325 329 330 329 329 327 324 323 319 315 313 309 305 304 299 298 295 294 294 293 292 290 289 289 288
287 266 264 281 286 292 303 305 303 311 299 305 309 314 321 323 323 322 325 329 330 330 329 328 325 321 317 315 310 308 307 305 302 302 300 298 298 297 294 293 293 291 289
271 260 253 265 279 288 297 300 307 308 297 298 302 310 317 321 321 320 324 324 327 329 329 327 323 319 314 312 310 311 311 307 306 304 301 300 299 296 295 294 293 292 291
272 263 254 250 267 275 290 296 301 309 298 293 304 308 316 317 321 320 322 323 324 328 326 326 322 317 313 312 311 311 310 308 307 305 303 302 299 297 296 295 295 293 291
271 257 256 241 254 268 281 288 297 302 299 270 297 303 313 318 321 322 321 322 323 325 326 324 322 316 313 311 311 311 311 310 308 305 303 300 299 298 298 297 295 291 289
274 264 289 247 251 265 275 288 294 305 294 295 298 305 314 318 321 321 320 322 323 324 325 324 323 318 315 312 311 311 309 308 307 306 304 302 301 299 298 295 292 289 287
283 286 284 245 257 261 280 290 288 291 300 300 299 307 315 319 321 320 321 322 322 324 325 323 322 320 316 312 311 310 308 308 306 307 306 304 301 298 295 291 287 283 279
289 283 281 273 282 269 288 285 306 303 291 300 304 310 315 320 321 319 321 321 325 324 324 324 324 318 317 315 314 313 314 313 313 311 308 305 302 298 293 289 278 267 276
292 301 270 271 253 293 297 309 310 311 316 304 304 309 314 321 320 318 320 323 322 324 326 324 323 322 320 317 315 316 317 317 317 320 321 316 308 303 295 285 281 285 287
306 291 283 277 247 284 287 284 298 309 304 298 302 308 316 320 317 317 320 322 324 326 327 327 327 323 319 317 319 322 321 322 328 332 334 331 329 327 314 303 296 298 290
311 299 292 276 269 313 252 300 301 291 287 298 300 307 312 317 315 317 320 323 326 328 329 329 325 321 321 324 327 325 328 331 327 325 325 327 322 319 314 304 301 299 280
305 296 289 259 273 283 275 268 273 280 295 301 302 306 312 315 317 320 321 324 327 328 329 328 325 326 327 329 331 333 335 330 328 326 327 326 324 318 310 304 304 300 289
299 291 286 291 255 260 287 247 253 271 292 303 301 305 313 318 321 317 320 324 329 331 331 330 329 330 331 335 339 337 331 330 330 327 328 327 324 321 318 313 305 305 299
298 290 279 269 250 294 283 283 258 282 296 298 302 309 318 320 316 318 322 327 335 335 332 331 334 333 333 338 338 334 332 336 335 333 331 330 329 327 325 327 323 316 313
291 295 278 280 256 287 283 297 268 278 293 298 305 313 319 317 316 320 326 334 336 333 333 335 335 333 334 334 334 334 335 336 339 338 335 332 332 332 331 331 330 325 317
285 288 278 278 259 288 291 286 295 278 289 300 305 314 315 316 318 322 329 335 336 334 332 333 335 331 332 335 335 335 337 339 338 336 334 333 332 331 329 326 324 321 316
280 265 242 264 236 286 279 299 282 271 293 295 310 316 317 317 320 326 333 335 332 331 334 335 335 328 335 338 337 338 341 339 335 333 333 333 333 330 328 327 325 321 317
268 263 268 257 257 266 298 294 275 286 287 306 315 316 315 316 323 330 333 330 331 335 334 332 331 333 339 339 337 336 335 334 334 334 333 331 330 330 330 331 327 323 320
267 267 235 229 248 271 274 264 274 285 309 309 315 313 315 320 324 327 330 333 336 333 332 333 331 335 339 338 336 337 335 336 335 336 336 336 334 331 327 323 320 317 315
266 255 225 202 224 232 262 246 282 307 305 307 309 310 313 318 326 331 334 335 334 333 333 333 327 334 338 336 337 339 340 340 339 337 336 334 331 327 326 324 318 315 313
256 247 228 217 216 239 228 267 290 292 300 302 304 308 317 324 330 333 334 335 335 332 331 328 328 336 337 337 339 340 339 338 336 334 334 336 335 330 326 324 322 324 326
250 241 227 214 226 217 222 241 265 284 296 300 304 316 323 330 335 334 336 337 332 329 330 327 334 337 338 340 342 339 337 336 335 336 334 334 334 333 335 336 334 333 335
229 231 220 214 228 227 216 234 256 285 295 302 319 324 329 335 337 335 335 333 331 331 330 335 339 339 340 342 341 339 338 339 341 341 341 340 343 345 340 337 338 339 339
203 207 209 214 202 204 220 232 271 288 306 322 324 326 333 338 334 332 335 333 333 334 335 341 343 341 343 343 341 342 345 349 351 349 353 357 350 344 345 349 351 2 31
199 222 226 201 214 202 213 268 297 311 316 326 333 331 334 333 333 335 333 336 337 341 344 345 344 346 346 346 348 353 355 355 0 4 360 357 358 8 21 30 44 61 69
Height
5808 5805 5804 5804 5802 5803 5803 5801 5797 5795 5792 5789 5784 5779 5774 5768 5762 5754 5748 5739 5732 5724 5717 5709 5702 5695 5690 5684 5679 5674 5669 5666 5663 5658 5653 5648 5646 5643 5639 5635 5632 5630 5628
5802 5799 5798 5798 5796 5797 5797 5793 5791 5789 5787 5784 5778 5774 5769 5763 5756 5749 5742 5733 5725 5718 5711 5704 5697 5690 5684 5678 5673 5668 5664 5659 5656 5651 5645 5640 5637 5634 5631 5626 5623 5620 5617
5794 5793 5791 5792 5789 5790 5789 5787 5785 5782 5780 5778 5773 5768 5762 5757 5750 5743 5736 5727 5719 5711 5705 5697 5689 5683 5676 5671 5666 5660 5656 5651 5646 5642 5637 5632 5628 5624 5621 5616 5612 5609 5606
5789 5787 5784 5784 5785 5784 5782 5781 5778 5776 5773 5770 5766 5761 5756 5750 5744 5736 5729 5720 5712 5705 5696 5689 5682 5675 5669 5663 5658 5652 5648 5643 5638 5634 5627 5622 5617 5613 5610 5606 5600 5596 5592
5780 5779 5779 5777 5777 5776 5775 5774 5773 5771 5768 5764 5759 5754 5749 5745 5737 5730 5722 5713 5705 5697 5689 5681 5675 5668 5661 5654 5649 5643 5638 5633 5629 5624 5617 5612 5605 5601 5596 5592 5588 5583 5578
5774 5771 5771 5769 5770 5769 5767 5767 5765 5762 5759 5752 5752 5749 5743 5737 5730 5722 5714 5706 5698 5690 5682 5674 5668 5661 5654 5647 5640 5634 5628 5623 5618 5613 5607 5601 5593 5587 5582 5577 5573 5569 5565
5768 5766 5765 5763 5762 5763 5761 5760 5758 5754 5751 5748 5745 5741 5735 5729 5722 5715 5707 5699 5691 5683 5676 5668 5661 5654 5647 5639 5632 5626 5619 5612 5605 5599 5592 5586 5579 5573 5567 5562 5559 5556 5554
5758 5758 5755 5754 5755 5756 5753 5753 5751 5749 5745 5742 5741 5734 5728 5721 5715 5707 5699 5692 5684 5675 5668 5660 5653 5646 5639 5631 5624 5617 5610 5602 5595 5587 5579 5571 5564 5558 5553 5549 5547 5545 5544
5750 5749 5749 5750 5748 5747 5746 5744 5743 5740 5739 5736 5733 5728 5721 5714 5708 5700 5692 5686 5677 5669 5661 5653 5645 5638 5630 5623 5615 5607 5598 5589 5580 5571 5562 5555 5549 5544 5541 5539 5538 5538 5537
5744 5741 5740 5741 5736 5740 5741 5737 5737 5734 5733 5730 5726 5722 5715 5707 5700 5693 5686 5676 5670 5663 5655 5646 5638 5630 5620 5612 5604 5596 5587 5577 5567 5557 5550 5544 5539 5536 5534 5533 5534 5533 5532
5737 5736 5735 5733 5728 5730 5728 5728 5728 5727 5725 5723 5719 5715 5707 5700 5693 5686 5678 5670 5662 5654 5647 5639 5630 5621 5612 5604 5595 5586 5575 5566 5559 5553 5547 5542 5537 5535 5533 5532 5531 5529 5527
5730 5727 5727 5725 5722 5723 5719 5718 5719 5720 5718 5714 5711 5707 5700 5693 5687 5680 5671 5663 5655 5647 5638 5631 5623 5614 5604 5594 5585 5575 5566 5560 5555 5550 5545 5541 5537 5534 5532 5529 5527 5524 5523
5722 5719 5719 5719 5717 5716 5717 5714 5714 5710 5710 5708 5705 5700 5694 5686 5680 5673 5664 5657 5649 5641 5633 5624 5616 5605 5595 5586 5577 5569 5563 5557 5551 5546 5542 5538 5535 5532 5529 5525 5523 5520 5519
5714 5713 5710 5703 5707 5706 5709 5706 5703 5704 5704 5702 5700 5696 5688 5681 5674 5668 5660 5652 5643 5634 5625 5618 5609 5599 5588 5580 5573 5567 5561 5555 5549 5544 5540 5536 5532 5529 5526 5523 5520 5518 5517
5707 5705 5703 5701 5696 5700 5700 5701 5698 5699 5698 5696 5694 5690 5682 5675 5670 5662 5653 5645 5635 5626 5619 5612 5602 5593 5583 5576 5571 5566 5560 5553 5547 5542 5538 5534 5530 5526 5523 5520 5519 5517 5515
5699 5697 5694 5690 5693 5695 5696 5696 5694 5694 5694 5691 5688 5681 5675 5669 5664 5655 5646 5636 5629 5621 5613 5605 5597 5588 5580 5575 5569 5563 5557 5550 5545 5540 5537 5532 5528 5524 5521 5518 5516 5514 5512
5693 5691 5687 5687 5687 5689 5689 5689 5691 5691 5690 5686 5681 5674 5669 5665 5657 5648 5639 5632 5624 5617 5610 5602 5594 5585 5579 5572 5566 5559 5553 5548 5543 5539 5535 5531 5526 5523 5519 5516 5513 5511 5508
5683 5682 5678 5682 5680 5683 5683 5685 5685 5685 5683 5680 5672 5667 5664 5659 5650 5642 5634 5626 5620 5613 5604 5597 5589 5582 5576 5569 5563 5557 5551 5546 5541 5537 5532 5528 5524 5520 5517 5513 5510 5508 5505
5672 5672 5671 5669 5672 5676 5679 5679 5678 5678 5676 5670 5666 5663 5659 5653 5644 5636 5629 5623 5616 5608 5600 5593 5585 5578 5572 5567 5561 5555 5549 5544 5539 5534 5530 5525 5521 5517 5513 5510 5507 5504 5502
5664 5666 5666 5666 5668 5673 5675 5673 5674 5672 5667 5665 5664 5659 5654 5646 5638 5631 5625 5617 5610 5603 5596 5588 5580 5574 5569 5564 5558 5553 5547 5542 5536 5532 5527 5522 5518 5514 5510 5507 5503 5500 5496
5654 5655 5657 5659 5663 5667 5668 5669 5668 5664 5665 5664 5660 5655 5649 5642 5634 5626 5619 5612 5604 5597 5590 5583 5578 5572 5567 5561 5555 5549 5544 5539 5533 5528 5524 5519 5515 5511 5507 5503 5499 5495 5492
5645 5647 5650 5654 5657 5660 5662 5664 5664 5664 5663 5661 5657 5651 5643 5635 5628 5620 5614 5607 5600 5594 5587 5579 5575 5570 5564 5558 5552 5546 5541 5535 5530 5525 5520 5516 5511 5507 5503 5498 5494 5490 5486
5639 5640 5645 5650 5654 5656 5659 5664 5663 5661 5660 5657 5652 5645 5636 5629 5623 5616 5609 5602 5596 5590 5583 5576 5572 5567 5561 5556 5550 5544 5538 5532 5527 5522 5517 5512 5507 5503 5499 5494 5490 5486 5483
5633 5638 5642 5647 5649 5654 5659 5659 5659 5657 5655 5651 5644 5637 5630 5626 5619 5611 5605 5599 5592 5586 5579 5574 5570 5564 5558 5552 5546 5541 5535 5530 5525 5519 5514 5509 5504 5500 5496 5492 5487 5483 5479
5630 5635 5639 5643 5649 5652 5653 5655 5653 5651 5648 5643 5639 5633 5626 5621 5616 5609 5602 5595 5589 5582 5577 5572 5568 5563 5556 5550 5544 5538 5532 5527 5521 5516 5511 5507 5503 5499 5494 5489 5485 5481 5479
5627 5634 5639 5644 5646 5649 5652 5652 5650 5647 5644 5640 5634 5628 5623 5619 5613 5605 5600 5591 5585 5579 5575 5570 5566 5560 5554 5548 5542 5536 5530 5525 5520 5516 5511 5507 5502 5498 5494 5490 5486 5483 5482